Wind_Speed
20 20 20 19 18 18 17 15 14 12 11 10 9 8 9 9 8 7 6 6 5 5 6 6 5 5 4 3 2 2 3 5 5 5 3 3 3 2 2 3 3 3
19 20 21 21 20 19 19 17 16 14 13 11 11 11 11 11 10 8 8 7 6 6 6 6 6 6 5 4 3 3 2 3 4 4 3 3 3 3 3 3 3 2
20 20 21 22 21 20 19 18 18 16 15 14 13 12 12 13 12 11 9 8 8 7 7 7 7 7 7 6 5 4 3 2 3 3 3 3 3 3 3 3 3 3
21 20 20 21 22 21 20 20 19 18 17 16 14 14 14 14 14 12 11 10 9 8 7 7 7 7 8 8 7 6 4 3 2 2 2 2 2 2 2 2 2 3
21 20 19 20 21 22 23 22 20 19 18 17 16 15 15 15 15 14 12 11 10 9 8 8 8 8 8 8 8 7 6 5 3 2 2 1 1 1 2 2 2 3
20 20 20 20 21 22 24 24 23 21 20 18 18 17 17 16 16 15 14 12 11 10 8 8 8 8 9 9 8 8 8 7 6 4 3 2 2 1 1 2 2 3
21 21 21 21 22 22 23 24 25 24 22 21 20 20 19 18 17 16 15 14 13 11 10 9 9 9 9 10 9 9 9 9 9 7 5 5 4 3 2 2 3 4
22 21 21 22 22 23 23 24 25 25 25 24 23 21 21 20 19 18 17 16 15 13 12 11 10 10 10 10 10 10 10 10 10 9 8 8 7 5 5 4 4 5
24 23 23 23 23 23 23 23 24 25 26 26 25 24 23 22 21 20 20 19 18 16 14 13 12 12 12 11 11 11 11 12 12 11 10 10 9 9 8 7 6 7
26 25 25 24 24 24 23 23 23 24 25 25 25 26 26 25 24 24 23 22 20 18 16 15 15 14 14 13 12 12 12 13 13 13 12 12 12 12 11 10 9 8
28 27 27 26 26 25 24 23 23 24 25 25 25 26 26 27 27 27 26 24 22 20 19 18 17 17 17 16 15 14 14 14 14 15 14 14 13 14 14 13 12 11
29 28 28 27 27 26 25 24 24 25 26 26 26 26 27 27 28 28 28 27 25 23 23 21 20 20 20 19 18 17 16 16 16 16 16 16 16 15 16 16 15 15
30 30 29 29 29 28 27 27 26 26 26 27 27 28 28 28 28 28 28 28 27 26 26 24 23 23 22 21 21 20 19 18 18 17 17 18 18 18 17 18 17 17
29 29 30 30 30 30 29 29 29 28 27 27 28 28 29 29 29 29 29 29 29 28 28 27 26 25 24 23 23 23 22 21 20 19 19 19 19 19 20 19 19 19
27 28 29 30 31 31 31 31 30 30 29 29 29 29 29 29 30 29 30 30 30 30 29 29 29 27 26 25 24 24 24 23 22 21 21 21 20 21 21 22 21 21
26 28 29 30 32 32 32 32 32 32 32 31 31 31 31 31 31 31 31 31 31 31 31 31 30 29 27 26 25 25 25 25 25 24 23 23 22 22 22 23 23 23
26 27 30 32 33 34 34 34 34 34 34 34 33 33 33 32 33 32 32 32 32 32 32 32 31 30 28 27 26 26 26 26 26 26 25 25 24 24 23 23 24 24
28 28 29 31 33 35 35 35 35 36 36 36 35 35 34 34 34 34 33 33 33 33 33 33 32 31 30 29 28 27 27 27 27 27 27 27 26 26 25 25 24 25
29 30 31 31 31 33 35 36 37 38 37 36 36 35 35 35 35 34 34 34 35 35 34 34 33 32 31 30 29 28 27 28 28 28 29 29 28 27 27 27 27 26
28 31 33 32 31 30 31 33 36 38 37 37 36 35 36 36 35 35 35 35 35 35 35 34 33 32 32 31 30 29 28 28 29 30 30 30 30 29 29 28 28 28
28 30 32 32 31 30 29 29 33 36 37 36 36 36 36 35 35 35 35 35 35 35 35 35 34 32 32 32 31 30 30 30 30 31 31 31 31 30 30 29 29 29
28 29 29 29 30 32 32 31 32 34 35 35 35 35 35 35 35 35 35 35 34 34 35 35 33 33 32 32 32 31 31 32 32 32 33 33 32 31 31 30 29 30
27 27 27 28 30 33 35 35 34 34 35 34 33 33 33 33 34 34 35 35 34 34 35 34 32 32 32 32 32 32 33 33 34 34 34 34 33 32 31 30 30 30
25 25 27 28 30 33 35 36 35 36 36 35 34 33 32 32 33 34 34 34 35 34 34 32 31 30 31 31 31 32 33 34 35 35 35 35 34 33 32 31 30 29
24 24 26 26 29 33 36 37 37 37 37 37 35 34 33 32 32 34 34 34 34 34 33 31 30 29 30 30 29 30 32 33 34 36 37 36 35 34 33 32 30 29
25 26 27 27 27 30 34 37 38 38 38 38 36 35 33 33 33 34 34 33 33 32 31 30 29 28 28 28 28 29 31 32 34 36 36 36 35 34 33 32 31 30
Wind_Direction
213 212 212 212 213 216 215 211 211 213 216 220 222 225 228 226 222 218 219 221 216 210 206 202 196 194 191 174 144 117 97 88 80 74 85 114 124 131 153 166 166 182
214 213 213 213 212 215 216 212 208 208 211 216 220 223 227 230 228 223 221 223 224 220 214 212 213 213 209 203 190 165 128 105 97 92 95 112 128 137 136 136 136 144
216 215 214 214 213 214 217 215 210 209 210 214 219 223 226 230 230 227 225 224 224 226 223 220 220 222 220 216 209 198 182 151 120 109 101 104 119 142 146 140 141 146
218 218 216 215 214 214 216 217 214 212 212 214 217 222 226 229 231 230 230 229 227 228 231 231 229 230 229 225 221 216 211 208 174 133 113 103 111 130 142 144 156 160
219 220 220 218 216 215 216 218 217 215 215 214 216 221 226 231 233 233 232 233 232 231 232 236 238 239 240 239 234 232 229 229 216 181 168 171 143 122 117 128 152 167
218 220 221 220 219 218 218 219 220 219 218 217 217 221 225 230 234 235 234 235 235 234 232 235 240 242 245 247 246 245 245 243 237 222 217 231 231 202 144 140 158 171
220 220 221 222 222 221 219 219 221 222 221 220 220 222 225 228 232 235 236 237 237 237 235 235 240 243 244 246 248 252 254 254 250 241 235 241 246 244 228 193 182 181
224 224 224 224 224 224 222 220 222 223 222 222 222 223 227 229 232 236 238 239 240 239 239 238 241 244 246 246 246 248 252 256 256 250 243 241 243 249 248 228 204 196
226 225 225 227 227 226 225 223 223 224 224 224 222 223 226 230 232 235 238 240 241 241 240 241 242 245 248 248 248 248 248 251 255 254 249 244 240 240 241 236 221 209
228 227 226 226 227 228 228 227 227 227 227 227 225 224 225 227 231 233 236 238 240 240 241 242 245 247 249 249 248 249 248 247 249 251 251 248 243 241 239 236 229 221
228 228 227 226 226 227 227 229 229 230 230 231 230 229 227 227 229 232 234 237 238 239 240 241 243 246 249 250 249 248 247 246 246 247 248 247 245 245 243 239 233 228
229 230 230 229 228 227 227 228 229 230 231 231 232 233 232 230 231 232 234 236 238 239 240 241 242 244 247 250 251 250 247 246 246 246 247 247 245 245 245 243 239 234
229 230 232 232 232 232 231 230 230 230 230 231 232 234 234 234 234 234 235 237 238 240 241 242 242 243 244 247 250 251 250 247 247 246 247 247 247 246 245 245 244 240
229 231 233 234 235 236 236 235 234 233 232 232 233 234 234 235 236 236 236 237 238 239 240 242 242 242 242 243 246 250 252 251 248 247 247 247 248 248 247 246 246 245
230 232 233 235 235 236 237 237 236 235 234 234 234 234 234 235 236 237 237 237 237 238 239 240 241 241 240 241 243 246 250 252 251 249 247 246 247 247 247 247 247 247
231 232 233 233 235 235 235 236 236 236 236 234 233 233 234 235 236 237 237 237 237 238 238 239 240 240 239 239 240 242 245 249 250 250 248 247 246 246 247 248 248 248
229 231 233 233 235 236 236 235 236 236 237 236 235 234 234 235 236 236 237 238 238 239 239 240 240 240 240 239 239 240 242 245 248 250 250 248 247 246 246 247 249 249
228 227 228 231 234 238 239 240 239 238 238 238 238 237 237 237 237 237 238 238 239 240 241 241 242 242 242 241 240 240 241 243 245 248 250 250 248 247 247 247 248 249
232 229 226 225 229 234 238 241 242 242 241 240 240 240 240 241 240 240 241 240 241 242 242 243 244 244 244 244 243 242 241 242 244 245 248 250 250 248 248 248 248 249
236 233 231 228 227 228 232 238 242 244 245 244 243 242 242 243 244 244 245 244 244 245 245 245 246 245 246 246 246 245 243 243 243 243 245 248 250 250 249 248 249 250
232 230 230 230 230 229 231 235 237 239 242 244 245 245 245 245 246 247 247 247 247 247 247 247 247 246 247 247 247 247 245 244 243 242 244 246 249 250 250 249 250 251
229 227 228 230 229 230 232 234 234 234 235 238 242 245 246 246 247 247 248 248 248 248 248 248 247 247 247 247 247 247 246 245 244 243 244 246 248 250 251 251 251 251
229 229 232 232 229 227 229 232 233 232 231 231 233 237 241 244 246 247 248 248 247 247 248 248 247 246 247 247 247 247 247 246 245 245 246 247 248 249 250 251 251 252
232 230 232 233 229 225 225 229 231 230 229 229 229 230 232 237 242 245 246 246 245 245 246 247 246 245 245 246 245 246 247 246 246 246 246 247 248 249 250 251 251 251
233 234 234 236 234 228 224 225 227 228 229 228 227 227 228 232 238 241 242 243 244 245 245 245 244 243 243 244 243 244 245 246 246 246 246 247 248 249 251 252 252 251
228 232 236 241 243 235 227 224 224 226 228 229 228 228 229 232 236 238 239 241 242 244 244 243 242 241 241 242 242 243 243 244 244 245 246 247 248 250 251 252 252 252
Height
3223 3225 3227 3229 3231 3233 3234 3235 3237 3238 3240 3241 3243 3244 3244 3245 3246 3247 3247 3248 3249 3250 3250 3250 3251 3251 3252 3252 3253 3253 3254 3255 3255 3255 3256 3256 3256 3256 3256 3257 3257 3258
3222 3224 3226 3228 3230 3231 3233 3235 3236 3238 3239 3241 3242 3243 3244 3245 3246 3246 3247 3248 3249 3250 3250 3250 3251 3252 3252 3252 3253 3253 3254 3255 3255 3256 3256 3256 3257 3257 3257 3257 3258 3258
3221 3223 3225 3227 3229 3231 3232 3234 3235 3237 3238 3239 3241 3242 3243 3244 3245 3246 3247 3248 3249 3249 3250 3250 3251 3252 3252 3253 3253 3254 3254 3255 3255 3256 3256 3257 3257 3257 3258 3258 3258 3259
3220 3222 3224 3226 3228 3230 3231 3232 3234 3235 3237 3238 3240 3241 3242 3243 3244 3245 3246 3247 3249 3249 3250 3251 3251 3252 3252 3253 3253 3254 3254 3255 3255 3256 3256 3257 3257 3257 3258 3258 3258 3259
3219 3221 3223 3225 3227 3228 3230 3231 3232 3234 3235 3237 3238 3240 3241 3242 3243 3244 3246 3247 3248 3249 3250 3250 3251 3252 3252 3253 3253 3254 3254 3254 3255 3255 3256 3256 3257 3257 3258 3258 3258 3259
3217 3219 3221 3223 3225 3226 3228 3230 3231 3232 3234 3235 3237 3238 3239 3240 3242 3243 3244 3246 3247 3248 3249 3250 3251 3252 3252 3252 3253 3253 3254 3254 3255 3255 3256 3256 3257 3257 3258 3258 3259 3259
3215 3217 3219 3221 3223 3224 3226 3228 3230 3231 3232 3234 3235 3236 3237 3239 3240 3242 3243 3244 3246 3247 3248 3249 3250 3251 3252 3252 3252 3253 3253 3254 3254 3255 3256 3256 3257 3257 3258 3258 3258 3259
3213 3215 3217 3219 3220 3222 3224 3226 3227 3229 3231 3232 3233 3234 3236 3237 3239 3240 3241 3243 3244 3245 3247 3248 3249 3250 3251 3251 3252 3253 3253 3253 3254 3255 3255 3256 3257 3257 3257 3258 3258 3259
3211 3213 3214 3216 3218 3220 3222 3224 3225 3227 3228 3229 3231 3232 3234 3235 3237 3238 3239 3241 3242 3244 3245 3246 3248 3249 3249 3250 3251 3252 3252 3253 3253 3254 3255 3255 3256 3256 3257 3257 3258 3258
3208 3210 3212 3213 3215 3217 3219 3222 3223 3225 3226 3227 3229 3230 3231 3233 3234 3235 3237 3238 3240 3241 3243 3244 3246 3247 3248 3249 3250 3250 3251 3252 3252 3253 3254 3254 3255 3255 3256 3256 3257 3258
3205 3207 3209 3211 3213 3215 3217 3219 3221 3222 3224 3225 3227 3228 3229 3231 3232 3233 3234 3236 3237 3239 3240 3242 3243 3245 3246 3247 3248 3249 3250 3250 3251 3252 3252 3253 3254 3254 3255 3255 3256 3257
3202 3204 3206 3208 3210 3212 3214 3216 3218 3220 3221 3223 3224 3225 3227 3228 3229 3231 3232 3233 3235 3236 3238 3239 3241 3242 3243 3245 3246 3247 3248 3249 3249 3250 3251 3252 3252 3253 3253 3254 3255 3256
3200 3202 3203 3205 3207 3210 3211 3213 3215 3216 3218 3220 3221 3223 3224 3225 3227 3228 3229 3231 3233 3234 3235 3237 3238 3239 3240 3242 3243 3244 3246 3247 3247 3248 3249 3250 3250 3251 3252 3252 3253 3254
3197 3199 3201 3203 3205 3207 3208 3210 3212 3213 3215 3217 3218 3220 3221 3222 3224 3225 3227 3228 3229 3231 3232 3234 3235 3236 3238 3239 3240 3242 3243 3244 3245 3246 3247 3247 3248 3249 3250 3250 3251 3251
3195 3197 3198 3200 3202 3203 3205 3207 3209 3210 3212 3213 3215 3216 3218 3220 3221 3222 3224 3225 3226 3227 3229 3230 3231 3233 3235 3237 3238 3239 3240 3241 3243 3243 3244 3245 3246 3246 3247 3248 3248 3249
3192 3194 3196 3197 3198 3200 3202 3203 3205 3206 3208 3209 3211 3212 3214 3216 3217 3219 3220 3221 3223 3224 3225 3226 3228 3230 3232 3234 3235 3236 3237 3238 3239 3241 3241 3242 3243 3243 3244 3245 3246 3247
3188 3190 3192 3194 3195 3197 3198 3199 3201 3202 3204 3205 3207 3208 3210 3212 3213 3215 3217 3218 3220 3221 3222 3223 3224 3226 3228 3230 3232 3233 3234 3235 3236 3237 3238 3239 3240 3240 3241 3242 3243 3244
3184 3185 3187 3189 3192 3194 3195 3197 3198 3198 3200 3201 3203 3204 3206 3208 3209 3211 3213 3215 3216 3217 3219 3220 3222 3224 3225 3227 3228 3230 3231 3232 3233 3234 3235 3236 3236 3237 3238 3239 3239 3240
3182 3182 3183 3184 3186 3189 3192 3194 3194 3195 3196 3198 3199 3201 3203 3204 3206 3208 3210 3211 3213 3214 3215 3217 3219 3221 3222 3223 3225 3226 3228 3228 3229 3230 3231 3232 3233 3234 3234 3235 3236 3237
3178 3180 3180 3181 3182 3184 3186 3188 3190 3192 3194 3195 3196 3198 3199 3200 3202 3204 3206 3208 3209 3211 3212 3214 3216 3218 3219 3220 3222 3223 3224 3225 3225 3226 3227 3228 3229 3230 3231 3231 3232 3233
3172 3174 3176 3178 3180 3181 3181 3182 3184 3187 3189 3191 3193 3194 3195 3197 3198 3200 3201 3203 3205 3207 3208 3210 3212 3214 3216 3217 3218 3220 3220 3221 3221 3222 3222 3223 3224 3225 3227 3228 3229 3230
3166 3168 3171 3174 3176 3177 3178 3179 3180 3182 3184 3186 3188 3190 3191 3193 3194 3195 3197 3199 3201 3202 3203 3205 3208 3210 3212 3213 3215 3216 3217 3217 3217 3217 3218 3219 3220 3221 3223 3224 3225 3226
3163 3165 3167 3169 3171 3172 3174 3176 3177 3179 3180 3181 3183 3185 3187 3189 3190 3192 3193 3195 3196 3197 3199 3201 3204 3206 3207 3209 3211 3212 3212 3213 3213 3214 3214 3214 3216 3217 3219 3220 3221 3222
3161 3162 3163 3165 3166 3167 3169 3171 3173 3175 3177 3178 3178 3180 3182 3184 3186 3187 3189 3190 3191 3193 3194 3196 3199 3201 3203 3204 3206 3207 3208 3208 3209 3209 3210 3210 3212 3213 3214 3216 3217 3218
3158 3159 3160 3161 3162 3163 3165 3166 3168 3170 3172 3173 3174 3175 3177 3180 3181 3183 3184 3186 3187 3189 3191 3192 3194 3197 3198 3199 3201 3202 3203 3204 3205 3205 3205 3207 3208 3209 3210 3212 3213 3214
3154 3155 3156 3157 3158 3160 3161 3162 3163 3165 3167 3169 3170 3172 3174 3175 3177 3178 3180 3182 3184 3185 3187 3188 3190 3192 3194 3195 3197 3198 3199 3200 3200 3201 3202 3203 3205 3206 3207 3208 3209 3210